Forecast Directory
U.S. Alerts
El Dorado Weather Logo
U.S. Radar Loop Conditions Map

U.S. Color Satellite North America Color Infrared Animated Satellite Loop

Interactive Wx Map Live U.S. Google Map Radar Thumbnail Image

US Precipitation 1 day, 24 hour precipitation map

US Temperatures US Conditions Map

US Climate Data US Conditions Map


NOAA NWS Hourly Roundups by Site
Regional Weather Roundup for Sacramento, CA
Select Site:  

000
ASUS46 KSTO 161415
RWRCA

NORTHERN AND CENTRAL CA REGIONAL WEATHER ROUNDUP
NATIONAL WEATHER SERVICE SACRAMENTO CA
700 AM PDT MON SEP 16 2019

NOTE: FAIR INDICATES FEW OR NO CLOUDS BELOW 12,000 FEET WITH NO
SIGNIFICANT WEATHER AND/OR OBSTRUCTIONS TO VISIBILITY.

CAZ001-003-161500-
NORTHWEST AREA

CITY           SKY/WX    TMP DP  RH WIND       PRES   REMARKS
CRESCENT CITY  MOCLDY    55  54  96 SE6       29.89R
UKIAH            N/A    N/A N/A N/A MISG      29.89R
$$

CAZ006-505>513-161500-
BAY AREA

CITY           SKY/WX    TMP DP  RH WIND       PRES   REMARKS
SANTA ROSA     MOCLDY    59  58  96 W3        29.88R
SAN RAFAEL     N/A       MM  MM  MM MISG
NAPA           LGT RAIN  60  58  92 SW7       29.89R
CONCORD        CLOUDY    67  57  70 W8        29.88R
OAKLAND CITY   N/A       64  MM  MM MISG
OAKLAND        DRIZZLE   65  59  81 NW16      29.90R
SAN FRAN CITY  N/A       62  MM 100 MISG
SAN FRAN ARPT  CLOUDY    61  58  90 W16       29.90R
LIVERMORE      LGT RAIN  64  62  93 SW7       29.88R FOG
HAYWARD        CLOUDY    64  62  93 W6        29.89R
REDWOOD CITY   N/A       63  MM  90 MISG
MOFFETT ARPT     N/A    N/A N/A N/A MISG      29.90R
SAN JOSE ARPT  LGT RAIN  65  60  84 SE8       29.89R
$$
CAZ034-037-514>518-161500-
CENTRAL COAST

CITY           SKY/WX    TMP DP  RH WIND       PRES   REMARKS
SALINAS        CLOUDY    63  59  87 S7        29.91R
MONTEREY       CLOUDY    67  60  78 SE3       29.92R
SAN LUIS OBISP PTCLDY    57  52  83 SE7       29.94R
SANTA MARIA    CLOUDY    61  56  83 CALM      29.95R
$$
CAZ015-016-161500-
NORTHERN SACRAMENTO VALLEY

CITY           SKY/WX    TMP DP  RH WIND       PRES   REMARKS
REDDING        MOCLDY    62  59  90 W3        29.77R
RED BLUFF      CLOUDY    63  55  75 S8        29.80S
OROVILLE       HVY RAIN  65  61  87 SW6G18    29.84R FOG
$$
CAZ016>018-161500-
SOUTHERN SACRAMENTO VALLEY

CITY           SKY/WX    TMP DP  RH WIND       PRES   REMARKS
AUBURN         CLOUDY    61  57  88 SE8       29.89R FOG
BEALE AFB      CLOUDY    67  60  78 S14       29.82R
LINCOLN        CLOUDY    64  59  82 S14       29.84R
MARYSVILLE     CLOUDY    66  60  81 S16       29.84R
PLACERVILLE    CLOUDY    55  55 100 S9        29.93S
SAC INTL ARPT  CLOUDY    66  61  84 SW10      29.83R
MATHER AIRPORT CLOUDY    64  61  88 S9        29.85R
DOWNTOWN SAC   N/A       66  MM  MM MISG
SAC EXEC ARPT  CLOUDY    66  61  84 S7        29.85R
VACAVILLE      CLOUDY    67  59  75 W12       29.87R
TRAVIS AFB     CLOUDY    65  59  81 SW14      29.86R
$$
CAZ019>021-161500-
SAN JOAQUIN VALLEY

CITY           SKY/WX    TMP DP  RH WIND       PRES   REMARKS
STOCKTON       CLOUDY    65  59  81 SE5       29.87R
MODESTO        CLOUDY    63  58  83 CALM      29.87R
MERCED         CLOUDY    58  54  86 CALM      29.88S
LEMOORE        MOCLDY    55  48  77 NW5       29.90
FRESNO         MOCLDY    62  57  83 NW8       29.89R
HANFORD        CLEAR     58  54  86 N3        29.90R
PORTERVILLE      N/A    N/A N/A N/A MISG        N/A
BAKERSFIELD    PTCLDY    63  42  46 N8        29.88R
$$
CAZ011-012-071-161500-
NORTHERN MOUNTAINS

CITY           SKY/WX    TMP DP  RH WIND       PRES   REMARKS
YREKA          MOCLDY    51  48  89 N3        29.88R
MOUNT SHASTA   CLOUDY    47  43  86 VRB5      29.85R
ALTURAS        RAIN      48  46  93 SW9       29.87R FOG
$$
CAZ011-012-071-161500-
SIERRA NEVADA MTNS

CITY           SKY/WX    TMP DP  RH WIND       PRES   REMARKS
BLUE CANYON    CLOUDY    48  43  82 S7        29.96F
TRUCKEE        PTCLDY    48  30  49 S18       29.97R
TAHOE VLY ARPT CLEAR     50  27  40 SW9G23    29.96S
MAMMOTH LAKES  FAIR      52  10  18 CALM      30.04S
$$


 

View Past Reports for Sacramento, CA.

Products Courtesy of NOAA-NWS
NWS Information Parsing Script by Ken True at Saratoga Weather - Script by SE Lincoln Weather.



Contact Us | Mobile
Never base any life decisions on weather information from this site or anywhere over the Internet.
Site is dedicated to our Lord & Savior Jesus Christ | Random Quotes

Copyright © 2019 El Dorado Weather, Inc. | Site Designed By:  El Dorado Weather